Ludington, MI

12:21 AM EST on December 18, 2017 (GMT -0500)
Mason County

Weather History for KLDM - February, 2012

Change the Weather History Date:

Wednesday, February 1, 2012

  Actual Average Record
Temperature  
Mean Temperature 36 °F -  
Max Temperature 39 °F 33 °F 46 °F (1989)
Min Temperature 33 °F 16 °F -2 °F (1982)
Degree Days  
Heating Degree Days 29    
Moisture  
Dew Point 32 °F    
Average Humidity 80    
Maximum Humidity 87    
Minimum Humidity 75    
Precipitation  
Precipitation 0.00 in - - ()
Sea Level Pressure  
Sea Level Pressure 30.01 in    
Wind  
Wind Speed 6 mph (NW)    
Max Wind Speed 10 mph    
Max Gust Speed 17 mph    
Visibility 10 miles    
Events      
Averages and records for this station are not official NWS values.
T = Trace of Precipitation, MM = Missing Value Source: NWS Daily Summary

Daily Weather History Graph

Daily Weather History Graph

Search for Another Location

Airport or City:

Trip Planner

Search our weather history database for the weather conditions in past years. The results will help you decide how hot, cold, wet, or windy it might be!

Date:

Astronomy

Feb. 01, 2012 Rise Set
Actual Time 8:03 AM EST 5:55 PM EST
Civil Twilight 7:32 AM EST 6:26 PM EST
Nautical Twilight 6:58 AM EST 7:00 PM EST
Astronomical Twilight 6:24 AM EST 7:34 PM EST
Moon 12:19 PM EST (2/1) 2:51 AM EST (2/1)
Length of Visible Light 10h 53m
Length of Day
9h 51m
Waxing Gibbous, 64% of the Moon is Illuminated
Feb 1
Waxing Gibbous
Feb 7
Full
Feb 14
Last Quarter
Feb 21
New
Feb 29
First Quarter

Hourly Weather History & Observations

Time (EST) Temp. Windchill Dew Point Humidity Pressure Visibility Wind Dir Wind Speed Gust Speed Precip Events Conditions
12:25 AM 39.2 °F 34.2 °F 33.8 °F 81% 29.80 in 10.0 mi West 6.9 mph - N/A   Clear
12:45 AM 39.2 °F 33.6 °F 33.8 °F 81% 29.80 in 10.0 mi West 8.1 mph - N/A   Clear
1:05 AM 39.2 °F 33.6 °F 33.8 °F 81% 29.81 in 10.0 mi West 8.1 mph - N/A   Clear
1:25 AM 39.2 °F 33.6 °F 33.8 °F 81% 29.81 in 10.0 mi West 8.1 mph 17.3 mph N/A   Clear
1:45 AM 39.2 °F 33.6 °F 33.8 °F 81% 29.82 in 10.0 mi West 8.1 mph 16.1 mph N/A   Clear
2:05 AM 39.2 °F 32.5 °F 33.8 °F 81% 29.83 in 10.0 mi WNW 10.4 mph - N/A   Clear
2:25 AM 39.2 °F 33.0 °F 33.8 °F 81% 29.84 in 10.0 mi West 9.2 mph 16.1 mph N/A   Clear
2:45 AM 39.2 °F 33.0 °F 33.8 °F 81% 29.85 in 10.0 mi West 9.2 mph - N/A   Clear
3:05 AM 39.2 °F 35.0 °F 33.8 °F 81% 29.86 in 10.0 mi West 5.8 mph - N/A   Clear
3:25 AM 39.2 °F 33.6 °F 33.8 °F 81% 29.87 in 10.0 mi WNW 8.1 mph 17.3 mph N/A   Clear
3:45 AM 39.2 °F 33.0 °F 33.8 °F 81% 29.87 in 10.0 mi WNW 9.2 mph 17.3 mph N/A   Clear
4:05 AM 39.2 °F 33.0 °F 33.8 °F 81% 29.88 in 10.0 mi WNW 9.2 mph - N/A   Clear
4:25 AM 39.2 °F 33.6 °F 33.8 °F 81% 29.90 in 10.0 mi WNW 8.1 mph - N/A   Clear
5:05 AM 39.2 °F 33.0 °F 33.8 °F 81% 29.92 in 10.0 mi West 9.2 mph - N/A   Mostly Cloudy
5:25 AM 39.2 °F 33.0 °F 33.8 °F 81% 29.92 in 10.0 mi WNW 9.2 mph 17.3 mph N/A   Mostly Cloudy
5:45 AM 39.2 °F 33.0 °F 33.8 °F 81% 29.92 in 10.0 mi NW 9.2 mph - N/A   Mostly Cloudy
6:05 AM 39.2 °F 33.0 °F 33.8 °F 81% 29.93 in 10.0 mi WNW 9.2 mph - N/A   Mostly Cloudy
6:25 AM 39.2 °F 33.6 °F 33.8 °F 81% 29.95 in 10.0 mi WNW 8.1 mph 16.1 mph N/A   Mostly Cloudy
7:05 AM 39.2 °F 33.6 °F 33.8 °F 81% 29.97 in 10.0 mi NW 8.1 mph - N/A   Scattered Clouds
7:25 AM 39.2 °F 34.2 °F 33.8 °F 81% 29.99 in 10.0 mi WNW 6.9 mph - N/A   Scattered Clouds
8:05 AM 39.2 °F 35.0 °F 33.8 °F 81% 30.00 in 10.0 mi NW 5.8 mph - N/A   Scattered Clouds
8:25 AM 37.4 °F 32.8 °F 32.0 °F 81% 30.01 in 10.0 mi NW 5.8 mph - N/A   Scattered Clouds
8:45 AM 37.4 °F 32.1 °F 33.8 °F 87% 30.01 in 10.0 mi NNW 6.9 mph - N/A   Scattered Clouds
9:05 AM 39.2 °F 34.2 °F 32.0 °F 75% 30.01 in 10.0 mi NW 6.9 mph - N/A   Mostly Cloudy
9:25 AM 39.2 °F 37.0 °F 32.0 °F 75% 30.02 in 10.0 mi NNW 3.5 mph - N/A   Mostly Cloudy
9:45 AM 39.2 °F 34.2 °F 32.0 °F 75% 30.03 in 10.0 mi NW 6.9 mph - N/A   Scattered Clouds
10:05 AM 39.2 °F 35.9 °F 32.0 °F 75% 30.03 in 10.0 mi WNW 4.6 mph - N/A   Scattered Clouds
10:25 AM 39.2 °F 35.9 °F 32.0 °F 75% 30.03 in 10.0 mi NW 4.6 mph - N/A   Scattered Clouds
10:45 AM 39.2 °F 34.2 °F 32.0 °F 75% 30.04 in 10.0 mi NNW 6.9 mph - N/A   Scattered Clouds
11:05 AM 39.2 °F 35.9 °F 32.0 °F 75% 30.05 in 10.0 mi NNW 4.6 mph - N/A   Scattered Clouds
11:25 AM 39.2 °F 35.9 °F 32.0 °F 75% 30.06 in 10.0 mi NNW 4.6 mph - N/A   Scattered Clouds
11:45 AM 37.4 °F 33.8 °F 32.0 °F 81% 30.07 in 10.0 mi NW 4.6 mph - N/A   Clear
12:05 PM 39.2 °F 35.9 °F 32.0 °F 75% 30.07 in 10.0 mi NNW 4.6 mph - N/A   Clear
12:45 PM 35.6 °F 30.7 °F 30.2 °F 81% 30.07 in 10.0 mi North 5.8 mph - N/A   Scattered Clouds
1:05 PM 35.6 °F 29.2 °F 30.2 °F 81% 30.07 in 10.0 mi North 8.1 mph - N/A   Clear
1:25 PM 35.6 °F 31.7 °F 30.2 °F 81% 30.07 in 10.0 mi NNW 4.6 mph - N/A   Clear
1:45 PM 35.6 °F 30.7 °F 30.2 °F 81% 30.07 in 10.0 mi North 5.8 mph - N/A   Scattered Clouds
2:05 PM 35.6 °F 30.7 °F 30.2 °F 81% 30.07 in 10.0 mi North 5.8 mph - N/A   Clear
2:25 PM 35.6 °F 30.7 °F 30.2 °F 81% 30.07 in 10.0 mi North 5.8 mph - N/A   Clear
2:45 PM 35.6 °F 31.7 °F 30.2 °F 81% 30.07 in 10.0 mi North 4.6 mph - N/A   Scattered Clouds
3:05 PM 35.6 °F - 30.2 °F 81% 30.07 in 10.0 mi Calm Calm - N/A   Scattered Clouds
3:25 PM 35.6 °F - 30.2 °F 81% 30.08 in 10.0 mi Calm Calm - N/A   Scattered Clouds
3:45 PM 35.6 °F 32.8 °F 30.2 °F 81% 30.10 in 10.0 mi NNW 3.5 mph - N/A   Scattered Clouds
4:05 PM 35.6 °F - 30.2 °F 81% 30.11 in 10.0 mi Calm Calm - N/A   Scattered Clouds
4:25 PM 35.6 °F - 30.2 °F 81% 30.12 in 10.0 mi Calm Calm - N/A   Scattered Clouds
4:45 PM 35.6 °F 32.8 °F 30.2 °F 81% 30.12 in 10.0 mi North 3.5 mph - N/A   Scattered Clouds
5:05 PM 35.6 °F 32.8 °F 30.2 °F 81% 30.12 in 10.0 mi North 3.5 mph - N/A   Clear
5:25 PM 35.6 °F - 30.2 °F 81% 30.12 in 10.0 mi Calm Calm - N/A   Clear
5:45 PM 35.6 °F - 30.2 °F 81% 30.12 in 10.0 mi Calm Calm - N/A   Scattered Clouds
6:05 PM 35.6 °F - 30.2 °F 81% 30.12 in 10.0 mi Calm Calm - N/A   Scattered Clouds
6:25 PM 35.6 °F - 30.2 °F 81% 30.12 in 10.0 mi Calm Calm - N/A   Scattered Clouds
6:45 PM 33.8 °F - 28.4 °F 81% 30.12 in 10.0 mi Calm Calm - N/A   Scattered Clouds
7:25 PM 33.8 °F 30.8 °F 28.4 °F 81% 30.12 in 10.0 mi NNE 3.5 mph - N/A   Scattered Clouds
7:45 PM 33.8 °F 30.8 °F 28.4 °F 81% 30.12 in 10.0 mi NE 3.5 mph - N/A   Scattered Clouds
8:05 PM 33.8 °F 30.8 °F 28.4 °F 81% 30.12 in 10.0 mi ENE 3.5 mph - N/A   Scattered Clouds
8:25 PM 33.8 °F 30.8 °F 28.4 °F 81% 30.12 in 10.0 mi NNE 3.5 mph - N/A   Mostly Cloudy
8:45 PM 33.8 °F - 28.4 °F 81% 30.12 in 10.0 mi Calm Calm - N/A   Scattered Clouds
9:05 PM 33.8 °F - 28.4 °F 81% 30.13 in 10.0 mi Calm Calm - N/A   Clear
9:45 PM 33.8 °F 30.8 °F 28.4 °F 81% 30.13 in 10.0 mi ENE 3.5 mph - N/A   Scattered Clouds
10:05 PM 33.8 °F 30.8 °F 30.2 °F 87% 30.13 in 10.0 mi ENE 3.5 mph - N/A   Scattered Clouds
10:25 PM 33.8 °F - 28.4 °F 81% 30.13 in 10.0 mi Calm Calm - N/A   Scattered Clouds
10:45 PM 33.8 °F - 28.4 °F 81% 30.13 in 10.0 mi Calm Calm - N/A   Clear
11:05 PM 33.8 °F - 28.4 °F 81% 30.14 in 10.0 mi Calm Calm - N/A   Clear
11:25 PM 33.8 °F - 28.4 °F 81% 30.14 in 10.0 mi Calm Calm - N/A   Scattered Clouds
11:45 PM 33.8 °F 30.8 °F 28.4 °F 81% 30.15 in 10.0 mi NE 3.5 mph - N/A   Scattered Clouds